Theta_e
298 298 298 299 299 299 299 299 299 299 300 301 301 301 301 302 304 306 309 316 316 315 317 317 323 316 318 329 328 329 327 325 325 326 326 327 326 329 330 331 331 332 331 331 332
299 299 299 299 299 299 299 299 299 299 299 299 300 300 301 301 302 305 313 312 313 313 315 317 321 319 326 327 330 328 328 328 324 325 324 325 326 327 329 330 331 331 332 332 331
300 300 300 300 300 300 300 300 300 300 299 299 299 299 299 300 301 307 313 313 313 312 313 317 318 321 329 330 330 329 331 330 329 327 326 326 326 327 329 330 331 331 332 332 332
300 300 300 300 300 300 300 301 300 300 300 300 300 300 299 299 302 312 313 313 313 314 310 314 315 316 316 323 328 328 331 331 332 330 327 326 326 327 328 329 331 331 332 331 331
301 301 301 301 301 301 300 300 300 300 301 301 301 300 300 300 301 312 314 310 312 314 312 314 315 314 313 315 320 324 326 328 328 328 328 328 327 327 328 330 331 331 331 330 330
301 301 301 301 301 301 301 300 300 300 300 301 301 303 305 305 303 303 304 304 310 312 313 313 314 315 314 313 314 319 322 324 324 324 326 328 328 329 329 329 329 329 329 329 329
301 301 301 301 301 301 300 300 300 301 300 300 301 306 308 306 303 302 302 307 310 312 312 313 314 314 315 314 316 316 316 318 319 320 321 325 325 326 327 327 328 328 329 329 329
300 300 300 300 301 301 301 301 303 306 302 301 303 309 308 307 307 304 304 305 310 311 311 313 313 314 314 315 316 318 318 319 320 320 321 322 324 326 327 327 327 328 328 328 328
300 300 300 301 301 301 301 305 306 307 308 307 307 308 308 309 311 310 309 306 309 309 310 312 311 311 313 313 314 314 320 320 321 321 322 322 324 324 326 327 326 326 327 327 328
301 300 301 301 301 301 304 307 307 309 310 309 311 311 309 307 310 313 310 308 308 309 310 309 309 309 308 311 317 316 317 319 320 321 321 322 323 323 324 325 325 326 326 326 327
301 300 301 301 301 305 307 307 307 307 306 306 306 306 307 304 308 310 310 308 309 310 308 308 306 309 310 312 314 317 318 319 321 320 321 321 322 323 324 323 323 324 325 326 327
301 300 302 303 305 307 308 307 307 306 306 306 306 306 307 306 306 306 308 306 307 307 309 308 307 309 310 312 313 314 315 316 316 317 320 321 321 322 323 323 323 323 324 324 325
301 301 304 305 306 307 308 307 306 306 306 305 309 309 309 307 306 306 306 307 306 305 306 311 312 312 310 311 313 313 313 314 315 316 315 316 317 318 319 320 321 322 323 325 327
301 301 305 304 306 307 307 307 306 307 306 308 309 308 308 307 307 307 306 307 306 305 305 305 306 308 312 309 312 313 314 314 315 316 316 316 316 317 318 319 319 320 323 325 325
301 301 306 307 306 307 307 307 306 307 306 308 309 308 308 308 309 312 312 308 307 306 305 306 306 307 309 311 313 312 314 315 316 315 315 316 315 318 317 319 319 320 323 324 325
301 301 304 307 307 306 307 307 307 305 306 308 307 308 309 309 310 310 312 312 311 311 307 306 307 306 306 308 308 310 313 314 314 314 315 315 316 318 317 318 318 321 324 325 324
301 301 304 308 308 306 307 308 304 305 307 306 307 308 309 309 309 309 311 312 313 314 312 311 309 307 308 307 307 307 308 311 313 314 317 315 315 317 318 318 318 318 321 322 324
301 301 307 310 309 308 308 304 305 308 308 307 306 307 308 308 309 310 310 310 312 312 312 313 313 314 314 312 309 306 306 310 313 316 316 316 316 317 317 318 319 320 321 322 324
303 306 308 311 309 308 309 304 308 309 308 307 307 308 308 308 309 309 309 310 312 313 311 312 312 310 309 309 309 309 307 308 310 312 314 316 317 317 317 317 318 318 320 323 325
306 310 311 310 309 309 305 309 309 309 307 308 307 308 309 308 309 309 309 310 310 311 310 311 310 310 309 310 309 310 311 308 308 313 315 315 317 318 317 317 318 317 318 325 330
310 310 311 310 308 308 301 306 307 307 307 308 308 308 308 309 309 309 310 310 310 310 310 310 310 310 311 310 311 313 311 310 309 311 315 315 316 316 317 317 318 321 321 335 336
308 306 309 309 308 306 305 308 308 308 308 309 308 308 309 309 308 310 310 310 310 310 311 308 310 312 310 309 309 311 313 312 308 309 313 315 316 318 315 316 318 320 334 336 337
307 310 309 308 307 302 306 307 308 307 308 308 307 308 308 308 309 309 308 309 310 309 311 310 309 310 307 310 313 313 317 314 314 308 311 314 316 316 316 318 319 323 334 335 336
308 305 307 307 305 304 306 308 308 307 308 306 306 307 307 307 307 307 307 309 309 310 310 311 310 309 308 309 312 312 314 314 315 317 314 313 314 316 317 317 318 326 334 335 336
309 304 305 301 304 304 305 306 308 309 306 306 306 307 306 306 307 307 308 308 308 309 310 309 311 311 310 310 310 311 312 313 315 315 317 318 316 316 316 317 318 325 334 335 335
306 306 305 306 306 306 305 308 308 308 308 307 306 306 305 306 307 308 308 308 308 308 309 310 313 314 313 311 312 313 314 314 314 314 315 316 316 317 317 328 330 331 334 335 335
295 304 303 305 304 305 306 307 309 308 307 307 306 306 307 307 308 308 308 307 306 306 308 308 309 312 313 314 315 316 315 315 313 314 315 316 316 317 329 331 330 333 335 335 335
Wind_Speed
15 14 14 15 16 16 16 17 17 16 16 17 17 18 19 22 25 25 30 29 24 19 17 11 13 14 17 11 15 15 1 4 6 5 6 16 8 18 16 14 5 3 7 4 13
15 15 15 15 15 15 16 17 17 18 17 17 18 18 20 23 27 31 28 27 26 22 24 26 18 14 12 14 8 7 5 8 7 7 8 19 24 22 16 13 14 12 2 13 2
16 16 16 16 15 15 15 15 17 17 17 17 17 18 19 21 24 13 5 7 17 26 27 22 25 15 17 19 12 9 12 13 18 18 18 23 23 30 16 16 11 9 13 18 15
18 19 20 20 20 19 18 17 16 16 17 18 19 19 19 16 7 11 8 7 5 14 33 31 20 17 6 14 25 9 19 24 31 28 24 19 30 22 25 23 32 25 32 22 21
18 19 20 20 21 21 21 21 21 19 18 18 20 22 21 12 26 12 12 5 2 10 35 33 27 14 7 6 15 18 10 22 28 30 30 30 26 24 30 35 39 33 27 27 23
18 19 20 21 21 22 23 24 24 23 21 20 19 19 17 11 16 11 27 32 13 11 21 28 12 21 8 7 11 4 15 25 26 28 30 23 27 32 36 42 36 34 30 29 31
20 21 22 23 22 23 23 24 24 24 24 22 19 15 17 31 27 22 22 20 20 17 13 24 25 12 10 4 20 19 13 16 19 16 11 17 22 24 35 35 33 36 36 36 37
22 23 26 26 27 27 27 24 19 18 19 21 18 12 15 29 19 25 20 28 23 20 15 14 14 17 24 10 9 4 5 19 19 18 15 7 30 18 19 25 31 32 38 42 45
27 28 30 30 30 28 25 21 13 15 16 16 15 9 16 10 13 7 12 23 23 18 14 15 9 11 6 4 1 7 17 18 17 11 8 15 39 17 31 29 23 30 38 41 44
28 29 31 31 29 26 17 18 18 10 13 14 5 7 12 17 12 22 9 4 11 15 13 10 9 5 5 6 17 12 18 20 18 6 16 21 32 21 29 29 29 38 40 38 42
27 28 28 23 17 12 13 21 28 2 24 17 27 30 34 46 38 31 8 10 14 11 7 5 4 18 23 18 12 10 18 8 2 13 16 18 18 20 19 18 21 35 32 39 41
24 25 21 16 10 10 16 15 22 22 17 24 26 34 41 48 38 48 21 8 3 4 6 5 20 14 10 7 14 15 14 16 8 9 11 15 23 24 21 19 29 31 31 36 37
22 21 18 14 9 12 11 20 25 16 4 12 28 20 30 14 31 38 32 19 6 5 5 11 4 9 17 12 15 16 20 15 12 13 23 13 12 11 13 15 26 26 34 36 32
21 20 14 16 8 16 14 24 17 9 1 6 11 9 28 5 5 26 27 23 5 10 8 10 9 14 12 22 13 20 9 16 16 10 16 9 18 22 18 23 18 20 29 29 32
23 19 11 9 15 17 22 27 9 3 4 14 11 11 12 12 10 8 16 29 20 14 7 11 7 2 13 15 14 20 11 15 13 11 16 19 6 26 6 17 14 12 23 32 39
25 18 13 9 12 17 21 22 7 4 3 6 12 18 16 21 8 11 11 6 3 11 17 14 14 11 9 11 9 5 8 10 9 4 10 10 8 28 15 22 15 6 24 33 38
26 19 13 11 11 16 19 13 4 4 4 10 13 15 11 14 11 14 7 7 5 4 2 3 10 15 14 12 9 5 2 2 3 6 17 12 9 22 6 3 8 11 22 36 37
28 20 8 10 9 12 15 5 6 9 11 19 13 9 9 14 10 15 12 7 6 2 1 2 4 6 2 2 2 6 9 5 7 4 7 9 13 17 19 31 33 33 32 38 34
30 10 5 7 8 7 5 4 2 5 12 15 19 3 3 7 6 9 5 3 4 3 3 2 3 5 9 7 6 5 9 5 5 15 1 7 10 18 21 24 21 24 21 31 22
19 8 6 5 5 8 4 2 3 10 18 15 8 6 8 6 7 7 3 5 8 8 1 1 3 6 5 4 5 9 3 4 4 6 9 6 8 11 6 10 12 10 16 16 19
13 6 6 5 7 3 2 4 11 15 19 6 10 5 6 4 4 5 9 8 7 7 7 4 4 4 5 3 5 2 4 4 4 4 10 6 9 6 12 12 15 15 20 29 33
12 3 7 8 5 3 3 9 18 14 13 6 5 3 2 4 5 5 2 4 12 10 6 4 2 4 10 16 17 7 5 5 4 10 5 10 18 8 10 11 12 10 20 32 39
14 6 5 14 3 3 6 11 8 12 8 4 5 2 1 5 4 5 6 3 4 3 1 4 3 4 9 3 5 4 3 2 5 6 18 6 8 10 9 15 20 5 20 26 32
7 4 6 4 14 2 7 7 8 15 9 13 6 4 4 5 3 6 11 3 3 5 13 5 4 6 6 9 6 10 8 6 2 2 10 18 16 22 17 20 19 11 23 32 38
7 2 4 4 6 8 8 5 10 7 6 8 5 7 7 5 12 5 7 13 9 10 3 5 5 9 14 16 16 17 19 11 8 6 3 6 10 19 19 20 21 18 28 30 32
9 6 7 10 12 7 5 2 10 13 4 7 5 14 10 7 12 19 14 7 9 5 5 3 3 3 14 19 19 21 19 13 14 11 10 15 17 17 21 22 9 27 34 33 35
12 5 8 7 4 3 3 10 8 17 8 13 16 14 12 14 17 26 29 23 14 8 8 6 4 2 8 9 4 7 12 13 7 5 3 5 7 11 5 13 9 5 35 36 36
Wind_Direction
2 359 355 349 344 340 334 327 323 316 309 307 305 305 303 297 281 274 262 258 257 243 234 229 234 218 208 219 199 200 161 233 240 210 257 330 356 304 336 347 7 208 153 163 211
4 1 358 355 352 348 343 337 330 326 320 311 302 299 296 297 293 280 272 265 254 245 237 222 227 203 206 220 199 171 196 230 215 251 292 310 306 293 325 321 326 332 184 343 198
8 3 360 354 350 345 338 332 328 327 325 320 311 301 296 301 306 285 148 237 241 230 227 229 221 215 225 231 205 198 219 232 258 260 273 284 286 287 301 298 280 300 320 330 273
3 1 358 353 349 344 337 330 323 318 315 314 313 307 300 295 259 167 129 95 24 232 218 218 213 215 208 224 229 254 227 228 254 257 260 260 277 282 277 275 285 296 286 293 289
3 359 355 350 346 342 336 329 323 316 310 306 307 307 302 267 249 233 235 277 304 304 212 209 209 209 211 225 236 244 240 232 243 258 258 263 265 265 277 280 283 283 268 267 281
2 359 355 350 345 339 333 327 323 315 307 299 303 302 289 267 293 285 256 258 240 248 217 209 217 218 266 236 225 286 244 254 254 252 254 255 261 263 269 272 278 283 275 284 293
1 359 354 349 343 337 333 331 322 315 307 297 293 292 265 262 295 284 267 246 217 227 218 221 209 216 225 274 262 258 271 276 253 252 257 270 265 250 254 268 273 274 281 291 295
358 357 353 349 343 339 339 340 337 330 301 295 290 282 265 304 295 260 246 242 218 219 231 211 201 243 237 268 302 259 246 244 249 248 255 258 261 253 261 257 262 272 283 283 285
355 354 350 349 346 342 343 346 340 332 306 300 294 293 273 304 285 306 287 238 223 227 228 228 237 231 188 147 280 231 243 240 246 228 233 206 258 256 258 256 270 280 280 279 281
353 350 348 346 338 330 339 357 10 15 12 341 320 303 272 267 301 324 297 221 213 240 246 246 232 200 164 174 214 220 226 237 247 220 231 242 261 263 265 271 272 272 272 271 267
350 346 344 341 333 331 347 3 4 312 315 286 283 271 274 281 284 287 310 312 237 227 177 194 189 220 211 216 236 259 245 268 232 217 228 245 257 261 254 248 261 267 270 267 265
345 343 349 351 355 349 342 359 347 326 310 321 303 284 279 270 275 278 274 293 280 200 168 197 229 234 246 220 231 249 264 266 290 289 236 246 255 263 264 259 252 258 262 262 273
343 344 344 360 14 355 353 343 329 329 305 309 335 331 336 275 245 262 265 270 230 250 226 217 219 230 241 239 245 231 236 254 261 294 288 291 285 284 266 252 260 266 270 272 274
341 341 343 355 4 351 342 340 338 345 47 287 337 347 346 264 276 252 261 245 232 217 246 255 229 254 249 230 230 246 241 238 254 250 258 216 277 268 266 264 264 245 254 264 274
337 338 343 333 349 348 342 340 331 313 45 340 300 323 305 308 280 276 313 213 226 217 180 231 283 172 236 243 225 252 259 232 237 235 251 262 293 267 250 258 247 248 261 265 266
336 336 317 315 335 352 345 337 324 45 309 315 342 347 353 354 342 323 15 22 231 241 229 226 231 248 248 265 256 325 245 244 253 234 251 219 199 272 248 246 246 218 247 258 270
338 330 300 305 329 353 349 337 37 85 292 349 354 350 5 352 349 8 90 194 142 293 72 268 235 237 242 257 270 209 47 245 246 197 236 158 211 237 248 279 223 237 248 258 261
338 327 300 308 327 338 342 36 64 16 330 334 338 343 347 359 352 349 3 16 137 197 149 256 284 174 33 98 273 215 177 197 195 204 230 275 229 240 232 262 266 262 255 263 266
341 349 325 304 352 9 359 32 248 348 320 319 325 324 281 4 327 357 334 352 17 22 143 192 252 340 319 308 138 308 222 179 287 273 271 226 274 281 275 275 267 269 255 257 263
355 5 352 340 342 353 67 266 281 321 320 322 321 328 348 335 359 345 305 48 349 350 350 216 292 254 287 301 241 208 253 177 205 200 240 253 257 234 255 261 266 261 245 220 208
6 13 5 320 320 20 122 253 310 321 322 313 334 350 345 335 286 329 349 334 357 341 330 309 163 298 347 241 218 273 216 191 161 197 221 256 249 197 264 260 278 296 211 165 170
2 24 6 349 352 23 333 315 310 318 328 345 313 4 336 332 346 347 263 335 348 331 331 309 156 271 260 267 256 258 255 172 219 238 258 242 253 312 251 278 285 242 165 166 168
348 324 32 349 27 322 293 316 286 332 331 1 298 32 312 344 344 289 357 186 231 323 317 333 326 324 328 315 44 240 103 4 284 206 238 249 263 226 282 276 280 226 153 155 157
351 358 344 27 2 337 321 332 319 330 308 350 293 16 353 308 238 277 301 279 320 242 278 249 226 203 224 253 304 290 275 306 84 276 246 243 278 273 271 278 292 156 170 159 162
10 340 23 305 330 318 315 288 310 326 298 321 306 351 325 294 307 252 312 306 294 286 158 157 232 226 255 265 266 262 265 256 235 234 238 299 297 289 289 281 267 207 175 158 157
357 353 326 292 290 329 322 329 306 327 303 296 306 307 301 269 262 281 279 265 256 253 175 133 267 303 278 272 257 252 252 236 232 235 248 250 273 275 277 294 272 177 168 164 162
353 316 310 285 288 347 287 318 315 317 290 282 299 298 291 277 283 286 278 264 245 197 190 180 198 261 273 341 110 229 239 232 231 195 208 243 238 302 309 336 40 206 164 162 161